Presure
226 228 207 202 161 158 154 169 166 181 253 202 192 200 180 188 227 192 167 226 229 211 201 187 195 187 185 183 181 187 195 197 200 197 193 191 198 202 204 201 198 197 184 198 174 174 202
162 163 162 164 154 163 203 211 187 184 219 187 188 209 175 187 181 210 187 172 213 192 196 173 165 159 176 190 178 181 180 203 206 205 208 195 196 194 199 187 202 204 192 198 193 199 194
175 182 172 168 171 187 184 171 183 183 185 183 186 170 126 166 130 173 168 171 154 165 172 195 198 178 160 219 215 211 202 218 216 211 215 214 213 215 209 210 214 211 202 197 200 207 209
181 169 171 167 166 177 161 163 167 175 166 161 166 153 159 208 162 174 163 174 159 163 166 160 202 162 160 174 188 176 202 193 183 211 199 232 224 207 201 201 198 205 210 209 204 201 200
140 148 150 155 165 161 160 153 154 154 152 156 171 179 161 190 165 177 189 163 173 161 156 152 171 164 182 189 152 162 180 184 178 163 191 222 233 226 222 217 213 205 201 203 202 196 196
180 163 163 171 166 160 167 174 167 156 164 162 165 171 161 155 176 179 193 171 157 175 162 175 167 172 168 177 183 177 159 141 166 180 172 166 165 207 203 193 207 201 218 179 217 214 215
176 163 180 153 155 166 171 170 166 188 164 172 162 163 174 195 160 150 150 185 156 157 151 193 156 145 144 153 138 162 163 165 161 168 138 188 205 187 159 186 174 199 164 184 224 222 210
163 168 156 169 161 158 178 153 145 144 168 180 168 158 145 169 153 150 181 150 158 154 157 159 144 156 165 172 152 171 177 187 172 143 202 164 190 178 172 172 169 182 188 187 165 168 195
91 159 161 177 149 137 171 145 169 169 173 158 153 149 166 152 156 175 167 169 169 167 157 154 172 132 166 160 152 169 178 177 171 187 171 146 201 170 180 185 187 175 188 177 169 178 164
153 163 172 163 154 161 136 169 144 133 145 155 144 164 168 175 162 163 158 183 145 161 153 176 157 149 163 178 166 176 158 143 184 157 178 167 163 181 175 193 160 196 190 196 195 174 169
158 163 158 158 150 151 156 163 161 149 173 150 167 158 149 160 173 162 166 155 151 161 148 155 153 164 170 136 156 168 163 171 165 184 152 176 156 199 145 205 205 186 194 160 181 189 195
156 143 163 153 161 160 167 149 172 146 166 164 155 153 156 155 167 144 172 167 138 152 161 152 141 167 157 157 163 172 161 176 176 164 170 149 173 158 163 154 207 212 163 202 203 201 212
160 158 158 156 151 154 138 152 126 162 147 167 163 155 161 165 164 150 157 163 176 165 154 151 165 148 167 160 160 152 146 178 164 189 153 182 141 152 194 202 195 188 195 213 209 196 207
153 147 161 145 154 162 170 170 158 152 152 148 159 163 152 139 153 154 174 158 163 171 168 168 159 159 157 139 154 171 170 178 154 166 178 149 156 180 174 154 206 198 204 188 192 200 210
171 155 147 149 166 154 161 162 158 167 141 135 147 160 160 167 160 161 161 152 167 152 162 154 161 143 164 159 159 169 148 164 141 168 164 163 166 145 179 168 204 197 188 190 208 204 217
138 153 165 155 154 162 138 144 156 157 153 163 138 141 155 154 163 152 169 155 162 160 132 165 154 161 165 152 167 155 178 152 153 135 160 163 168 178 177 170 171 214 197 206 204 209 209
163 148 161 152 130 161 147 135 178 164 151 160 162 166 148 166 155 162 165 157 160 160 170 159 166 152 151 168 168 169 172 147 164 183 154 162 191 168 145 183 207 175 203 208 206 195 199
167 140 146 155 152 162 150 180 141 153 179 129 165 167 171 169 174 167 156 158 160 161 170 151 167 164 132 164 168 159 159 174 159 179 168 148 166 160 198 192 210 207 190 205 205 210 209
137 173 159 130 165 162 159 165 180 159 164 146 150 149 152 160 152 157 158 172 152 149 126 163 163 164 165 127 168 166 168 176 176 147 191 190 168 151 187 174 162 210 218 204 210 209 214
156 164 170 164 136 145 147 133 172 138 157 133 135 159 141 161 145 148 154 144 160 149 157 152 157 164 156 171 162 169 174 180 153 173 147 186 180 165 190 181 200 180 212 209 210 221 226
162 162 158 163 137 168 164 166 133 161 155 143 165 148 166 133 145 161 170 148 150 160 136 157 143 144 167 166 150 174 147 169 189 192 195 175 160 190 172 184 211 225 207 215 220 215 216
152 141 157 165 150 155 163 153 161 171 171 156 148 158 139 161 146 125 128 145 141 136 174 155 159 167 169 159 170 143 168 177 187 183 188 180 195 193 210 201 216 213 217 216 216 206 216
170 170 141 174 171 173 170 167 173 160 172 143 145 145 169 162 155 168 156 151 165 141 146 168 170 168 171 166 157 162 161 180 181 179 195 186 187 189 198 208 216 215 213 222 212 217 222
166 156 155 174 173 153 170 173 165 174 158 160 169 167 166 157 168 166 156 171 150 144 160 156 176 170 152 143 179 143 178 186 180 186 187 187 190 185 229 214 224 215 226 211 216 221 218
158 170 174 177 173 177 156 162 154 165 173 162 183 176 180 158 162 162 151 180 130 180 177 179 172 183 178 185 178 185 185 186 176 188 190 175 175 207 227 227 214 229 216 215 230 224 232
174 155 165 170 185 163 181 176 145 165 172 183 170 177 161 159 179 158 172 179 188 171 171 158 143 140 176 182 174 186 184 177 195 197 184 169 217 223 227 232 217 227 216 224 229 222 242
179 182 170 179 184 172 181 179 137 175 174 172 164 169 169 182 170 185 159 182 173 166 143 176 188 175 180 187 180 181 191 188 190 197 176 187 221 222 223 224 225 219 224 225 223 253 304
174 165 168 166 172 162 173 164 178 175 172 167 174 167 173 165 163 174 169 173 166 168 183 187 161 184 196 181 176 151 149 189 187 193 240 223 220 195 228 206 221 227 224 210 257 293 466
182 171 165 163 178 177 160 171 172 142 183 172 183 174 123 179 158 172 176 182 165 161 188 166 164 192 187 183 159 152 192 196 185 221 225 231 229 226 199 218 225 229 216 263 399 452 444
Wind_Speed
14 14 15 16 12 14 16 15 17 21 17 15 15 15 17 13 13 13 17 6 6 5 11 17 17 21 24 25 27 28 29 30 30 34 32 31 27 24 25 27 28 29 38 34 42 45 42
16 16 16 15 20 17 6 7 9 8 5 14 5 6 11 10 12 9 12 14 4 14 14 17 22 22 26 30 27 28 29 38 37 36 35 34 32 32 32 32 31 32 35 36 39 39 46
11 8 9 13 13 6 4 11 1 1 2 2 3 10 26 12 25 7 12 12 21 19 19 21 21 26 23 29 32 37 40 39 39 42 43 43 41 37 38 39 37 37 37 38 40 39 40
10 14 11 14 13 6 20 19 15 3 13 17 13 23 21 13 17 15 17 15 19 20 19 24 22 24 23 29 32 30 42 40 34 48 45 36 38 39 41 41 41 42 42 41 42 44 47
23 19 20 18 15 18 20 21 23 22 23 24 12 13 20 10 18 16 8 21 19 23 23 24 24 26 30 34 26 30 44 46 49 32 54 35 31 28 33 36 38 42 48 49 49 51 54
10 16 17 16 17 24 20 15 19 25 19 20 20 17 22 22 15 14 16 19 23 20 25 22 26 30 33 37 41 40 36 31 46 48 27 41 43 34 33 41 41 41 45 41 55 57 58
14 18 13 25 21 17 16 18 20 12 22 21 21 23 13 12 26 26 28 14 28 28 33 34 30 37 35 38 34 39 43 45 47 52 40 44 37 39 36 42 50 47 42 53 49 56 59
17 15 21 17 20 22 17 25 28 30 21 16 21 24 31 19 28 29 22 30 29 31 32 32 37 35 39 41 35 48 48 52 49 41 50 53 45 41 37 48 48 43 41 45 49 53 52
35 21 20 21 29 29 22 34 23 22 15 29 28 32 23 33 30 25 30 25 29 34 33 33 38 37 41 37 36 52 55 57 52 57 49 48 54 49 51 45 50 50 49 55 61 54 51
28 26 29 27 26 25 34 25 30 24 30 35 36 29 30 31 30 31 33 37 36 30 35 42 42 38 48 58 52 65 42 45 68 52 59 52 54 58 55 60 63 59 56 65 64 60 59
28 29 27 31 29 28 27 29 29 33 27 35 28 32 34 31 35 30 34 35 34 34 38 36 38 51 58 44 41 66 61 68 60 68 48 68 56 72 45 71 69 59 72 64 62 65 63
35 34 33 30 35 34 36 31 31 33 33 31 32 34 33 35 37 39 42 43 37 41 43 38 44 57 48 45 59 75 52 74 68 56 62 50 71 62 60 52 79 75 70 76 72 74 70
36 36 37 36 42 35 42 38 36 37 35 37 38 33 39 43 41 35 35 44 56 46 40 42 57 51 64 53 52 50 50 82 55 74 53 74 55 59 85 83 86 76 82 80 74 74 71
41 40 41 39 36 42 47 49 39 37 35 34 39 44 35 41 41 47 58 43 51 61 60 60 51 54 52 53 46 81 81 83 53 59 73 56 54 94 82 74 86 88 87 81 80 81 76
48 45 40 41 47 41 47 44 44 50 39 42 34 46 49 55 49 53 53 42 59 51 58 44 55 56 74 64 65 78 54 73 59 73 56 59 62 66 89 68 91 93 85 83 88 87 82
48 48 50 46 44 50 48 41 45 42 41 53 42 49 46 45 58 47 63 50 59 57 54 67 56 64 74 52 70 65 80 61 64 58 72 62 78 89 87 81 87 87 94 91 92 91 84
59 47 53 47 51 51 48 47 61 58 36 48 49 52 42 59 47 57 62 55 60 63 78 69 73 66 60 82 78 79 87 63 73 100 70 80 103 72 75 105 98 81 94 92 95 87 95
66 54 56 55 50 58 45 65 47 38 68 49 58 54 65 63 67 62 52 56 62 65 73 60 73 74 58 80 82 70 69 97 77 94 77 76 82 77 111 119 100 98 108 100 97 96 100
58 70 65 58 66 62 54 58 70 65 55 40 42 42 51 50 45 52 55 69 58 63 56 73 78 81 83 53 87 83 86 98 95 73 111 110 88 73 110 85 80 102 97 103 101 103 104
65 75 75 68 59 57 53 55 62 51 50 57 59 59 53 60 53 52 56 57 65 63 68 69 79 86 79 97 86 94 95 97 73 84 78 100 91 88 121 98 119 88 105 104 106 105 101
79 76 68 74 68 75 69 72 60 63 53 54 72 61 78 53 55 66 79 57 65 73 58 74 68 68 97 87 79 101 69 79 121 116 118 95 77 123 88 111 112 101 112 107 106 105 110
65 63 70 84 62 67 73 61 70 82 80 55 58 74 60 69 60 54 56 63 62 62 96 72 77 91 99 82 95 73 83 100 117 97 116 102 127 129 110 126 111 110 106 108 108 115 114
88 89 67 91 87 87 84 84 86 66 82 61 66 67 83 72 67 84 67 73 83 68 65 85 89 92 97 87 79 80 81 110 100 99 128 117 114 112 137 122 113 110 108 105 111 113 114
88 81 74 93 93 67 85 93 79 91 75 75 84 78 75 66 80 79 71 92 80 65 86 70 101 94 77 74 106 67 109 114 101 120 122 109 93 106 108 118 110 111 107 112 113 115 119
81 98 96 98 95 99 71 75 71 78 92 73 99 86 93 63 69 84 78 100 55 96 91 98 82 105 98 114 99 114 120 122 98 128 128 88 102 142 114 113 110 108 111 116 116 117 122
109 78 91 93 104 79 104 101 70 84 95 100 84 91 60 65 98 72 90 101 109 72 69 72 72 72 100 112 90 123 118 101 139 141 108 93 121 120 117 113 113 108 115 117 119 120 130
114 111 102 105 108 94 104 103 57 104 104 93 73 84 88 106 83 107 77 108 85 72 67 89 117 86 104 116 106 112 129 127 128 134 104 124 124 116 119 116 113 117 119 121 122 134 132
112 92 95 89 99 81 98 75 103 105 104 82 96 91 96 85 72 94 77 86 70 74 110 117 71 115 130 107 97 72 72 127 119 108 111 119 107 97 116 117 113 117 121 114 135 138 47
124 102 88 87 117 105 78 88 97 57 115 90 107 93 52 106 65 93 104 116 64 85 120 70 81 131 123 112 72 76 134 125 110 105 118 111 113 115 110 112 117 119 118 137 84 47 43
Wind_Direction
250 246 254 254 256 260 265 274 282 285 287 283 287 286 291 318 293 298 300 315 69 343 327 320 328 324 323 326 330 322 314 311 310 310 308 307 299 294 295 288 277 275 275 277 273 269 269
262 257 260 275 276 270 24 350 297 283 335 283 333 315 288 17 304 340 334 323 12 331 325 315 316 320 328 329 333 330 328 326 322 319 316 313 310 306 302 286 296 288 276 279 272 271 269
221 168 223 247 260 134 148 277 314 314 87 341 18 302 285 302 290 327 312 329 299 320 335 334 330 337 325 336 334 339 342 335 333 334 325 317 316 313 309 306 304 301 292 286 287 289 289
165 242 226 247 254 220 271 274 272 238 280 288 291 286 293 7 302 312 311 328 310 323 326 324 357 327 325 341 345 342 353 351 341 346 346 313 313 315 313 311 307 305 305 303 302 300 295
261 267 267 266 251 264 272 279 282 283 284 284 304 311 294 340 313 327 336 320 325 321 315 317 335 331 349 351 307 323 349 348 348 316 345 331 329 323 332 320 309 305 303 299 298 298 294
285 254 256 257 268 273 268 279 267 279 286 287 296 306 294 285 301 318 340 316 312 333 322 334 331 337 346 353 349 345 326 287 340 338 317 323 321 342 327 327 326 328 307 297 304 300 297
292 267 269 262 266 286 286 281 287 288 292 290 295 296 296 341 303 304 311 324 316 316 319 348 320 315 309 323 291 336 335 338 333 335 280 332 350 327 305 316 319 344 300 318 311 303 299
276 264 273 261 267 276 283 273 281 286 274 305 271 302 299 301 295 304 312 308 296 316 311 314 312 318 330 346 325 340 340 336 336 314 339 330 335 319 313 318 315 316 329 319 298 302 318
284 267 270 271 265 279 281 281 279 282 274 281 284 290 294 291 288 316 313 311 317 322 304 321 343 297 346 336 322 346 344 343 335 334 331 315 332 314 323 327 326 305 332 309 300 308 287
258 277 281 279 261 282 278 285 287 275 284 273 290 282 287 303 288 297 292 323 312 322 313 324 324 315 338 341 342 342 327 310 340 326 338 326 324 330 315 331 305 336 327 331 327 295 298
258 271 272 272 255 279 277 285 285 283 296 269 297 283 286 304 307 302 317 295 300 323 301 318 318 335 338 302 327 340 335 334 329 331 314 338 320 331 302 334 334 329 331 298 315 318 321
255 264 270 268 276 280 283 269 281 277 295 296 278 287 294 295 309 297 316 321 295 307 324 314 303 333 327 329 334 335 332 334 331 328 336 303 337 317 320 311 333 329 301 327 326 323 323
262 259 265 267 275 269 264 277 283 294 277 293 298 293 303 310 307 302 310 319 320 322 308 315 330 304 330 331 328 312 301 329 322 331 312 335 298 312 329 333 333 330 328 323 323 321 322
259 255 265 255 273 275 275 271 285 273 284 286 301 301 293 283 304 298 314 311 319 320 316 326 325 327 319 304 310 323 324 324 312 327 337 301 307 336 332 297 327 330 328 320 320 322 319
258 259 256 264 268 271 275 279 280 280 272 286 282 288 303 294 308 310 314 302 315 307 321 316 320 297 323 321 320 319 300 320 299 325 317 320 326 303 337 315 327 330 326 315 316 318 313
250 261 263 261 265 263 273 261 275 282 284 286 273 286 306 306 299 300 304 302 317 317 287 322 310 321 320 308 317 308 321 301 313 297 316 314 323 332 334 315 320 318 327 318 315 317 315
254 256 260 262 264 265 261 264 267 275 276 285 290 285 292 295 295 304 306 311 315 314 317 307 313 304 309 318 319 319 321 299 313 322 302 318 332 311 302 335 323 312 322 316 317 311 315
259 248 258 263 263 261 266 264 263 269 270 278 284 289 285 291 291 301 307 313 312 316 320 309 318 316 294 315 317 311 309 322 308 322 315 296 322 300 332 334 320 319 326 319 317 313 314
249 256 258 261 263 266 270 272 265 272 278 273 288 289 296 303 302 301 305 309 307 303 293 317 317 315 315 297 317 316 317 320 318 293 328 326 321 303 331 314 308 319 312 319 315 315 313
260 261 259 264 257 269 265 266 272 264 265 270 275 283 275 297 286 293 302 297 307 299 310 308 311 315 310 316 314 319 317 319 300 316 299 328 322 315 329 322 327 310 317 316 314 311 308
257 262 265 268 265 268 269 273 260 278 274 262 282 275 283 284 279 297 300 291 294 304 294 305 303 299 312 312 300 318 305 311 325 323 325 312 304 327 312 323 319 312 319 314 312 309 309
254 246 266 266 260 271 270 263 275 275 277 278 269 280 273 292 275 284 286 283 286 286 303 300 305 310 309 307 315 303 309 319 323 321 325 325 324 327 318 323 316 316 314 314 311 311 310
259 261 248 264 266 268 270 270 272 272 276 265 269 272 285 286 285 289 289 287 299 290 294 304 305 305 308 308 303 313 302 320 320 324 324 323 322 322 326 321 315 314 315 310 309 309 310
261 255 256 263 265 261 270 271 270 277 268 275 279 281 283 279 287 289 287 295 285 294 296 290 306 301 285 300 315 305 316 322 317 321 322 318 309 315 310 316 313 316 311 309 309 309 309
256 262 263 264 266 267 266 273 268 278 281 267 283 282 286 269 283 284 289 296 291 298 301 306 304 308 310 311 313 318 320 320 316 319 321 307 313 320 312 312 317 314 310 309 312 309 311
258 256 263 262 266 265 269 272 265 276 280 281 282 287 271 267 293 278 297 300 301 302 300 278 295 297 310 315 309 317 318 314 317 318 317 307 314 313 311 312 314 312 308 307 309 310 312
257 257 262 262 263 268 268 271 271 275 277 278 281 285 289 289 293 295 279 300 303 286 300 309 308 310 311 311 315 316 316 317 316 316 308 315 312 311 312 313 312 308 308 309 311 313 312
257 257 259 260 262 263 267 267 272 273 275 277 279 279 286 283 284 294 296 299 298 296 303 306 288 309 308 313 307 297 301 314 311 309 304 310 308 310 311 310 309 309 309 314 314 313 303
253 255 254 257 262 263 264 267 270 274 273 279 280 281 275 287 283 292 295 296 294 289 301 295 303 306 308 312 293 301 311 310 312 308 309 309 309 311 310 307 307 309 312 314 310 302 302